Simultaneous Nadir Overpasses (SNOs) Predictions

Prediction of SNOs between GOES-17 and METOP-B Satellite Orbit:

Table of predicted SNOs for the next 14.0 days since TLE Epoch: 8/26/2022
Index Date Time (GOES-17) GOES-17 Lat,Lon METOP-B Lat,Lon Distance(km) Time Diff (sec)
1 08/27/2022 06:47:54 0.04,-137.32 -0.52,-139.76 278.64 80
2 08/28/2022 06:29:55 0.04,-137.32 0.62,-134.77 290.96 80
3 08/29/2022 18:46:05 -0.05,-137.32 0.43,-139.32 228.45 80
4 08/30/2022 18:28:06 -0.05,-137.32 -0.72,-134.33 340.88 80
5 09/01/2022 06:44:25 0.05,-137.31 -0.30,-138.92 183.41 80
6 09/02/2022 06:26:25 0.04,-137.31 0.79,-133.92 385.31 80
7 09/03/2022 18:42:36 -0.04,-137.29 0.19,-138.49 135.74 80
8 09/04/2022 18:24:35 -0.04,-137.28 -0.90,-133.49 432.36 80
9 09/06/2022 06:40:55 0.04,-137.25 -0.12,-138.08 93.83 80
10 09/07/2022 06:22:54 0.04,-137.24 0.97,-133.08 473.78 80
11 09/08/2022 18:39:04 -0.04,-137.21 0.06,-137.63 48.43 80
